EA7AZH-5 Weather Reports


time (UTC)temp
C
wind
direction
speed
KPH
gust
KPH
rain 1hr
cm
rain 24hr
cm
rain mn
cm
humidity
%
barometer
mb
20260510234304 21 0.0 0.0 0.00 0.00 0.00 49 1014.0
20260510233304 21 0.0 0.0 0.00 0.00 0.00 49 1013.9
20260510232306 21 0.0 0.0 0.00 0.00 0.00 48 1013.8
20260510231304 21 0.0 0.0 0.00 0.00 0.00 49 1014.0
20260510230304 21 0.0 0.0 0.00 0.00 0.00 50 1014.1
20260510225306 21 0.0 0.0 0.00 0.00 0.00 52 1014.1
20260510224304 21 0.0 0.0 0.00 0.00 0.00 51 1014.0
20260510223304 21 0.0 0.0 0.00 0.00 0.00 52 1014.0
20260510222306 21 0.0 0.0 0.00 0.00 0.00 52 1014.1
20260510221309 21 0.0 0.0 0.00 0.00 0.00 52 1013.9
20260510220304 21 0.0 0.0 0.00 0.00 0.00 51 1014.1
20260510215306 22 0.0 0.0 0.00 0.00 0.00 51 1014.1
20260510214304 22 0.0 0.0 0.00 0.00 0.00 51 1014.2
20260510213304 22 0.0 0.0 0.00 0.00 0.00 50 1014.3
20260510212306 22 0.0 0.0 0.00 0.00 0.00 50 1014.3
20260510211304 22 0.0 0.0 0.00 0.00 0.00 50 1014.4
20260510210304 22 0.0 0.0 0.00 0.00 0.00 51 1014.4
20260510205309 22 0.0 0.0 0.00 0.00 0.00 50 1014.4
20260510204303 22 0.0 0.0 0.00 0.00 0.00 50 1014.3
20260510203304 22 0.0 0.0 0.00 0.00 0.00 52 1014.0
20260510202306 21 0.0 0.0 0.00 0.00 0.00 53 1014.0
20260510201304 21 0.0 0.0 0.00 0.00 0.00 53 1014.0
20260510200304 21 0.0 0.0 0.00 0.00 0.00 52 1013.9
20260510195308 21 0.0 0.0 0.00 0.00 0.00 51 1013.7
20260510194303 22 0.0 0.0 0.00 0.00 0.00 50 1013.7
20260510193303 22 0.0 0.0 0.00 0.00 0.00 49 1013.4
20260510192306 22 0.0 0.0 0.00 0.00 0.00 48 1013.5
20260510191309 23 0.0 0.0 0.00 0.00 0.00 47 1013.6
20260510190308 23 0.0 0.0 0.00 0.00 0.00 48 1013.7
20260510185305 23 0.0 0.0 0.00 0.00 0.00 47 1013.6
20260510184303 23 0.0 0.0 0.00 0.00 0.00 48 1013.7
20260510183303 22 0.0 0.0 0.00 0.00 0.00 50 1013.7
20260510182306 22 0.0 0.0 0.00 0.00 0.00 50 1013.9
20260510181308 22 0.0 0.0 0.00 0.00 0.00 50 1013.9
20260510180303 22 0.0 0.0 0.00 0.00 0.00 53 1013.9
20260510175308 22 0.0 0.0 0.00 0.00 0.00 52 1013.8
20260510174303 21 0.0 0.0 0.00 0.00 0.00 54 1013.7
20260510173303 21 0.0 0.0 0.00 0.00 0.00 53 1013.4
20260510172306 23 0.0 0.0 0.00 0.00 0.00 48 1013.6
20260510171303 23 0.0 0.0 0.00 0.00 0.00 48 1013.5
20260510170303 22 0.0 0.0 0.00 0.00 0.00 49 1013.6
20260510165305 23 0.0 0.0 0.00 0.00 0.00 47 1013.9
20260510164303 23 0.0 0.0 0.00 0.00 0.00 45 1013.7
20260510163303 23 0.0 0.0 0.00 0.00 0.00 48 1013.7
20260510162310 23 0.0 0.0 0.00 0.00 0.00 47 1013.7
20260510161303 23 0.0 0.0 0.00 0.00 0.00 44 1013.7
20260510160303 23 0.0 0.0 0.00 0.00 0.00 46 1013.7
20260510155308 23 0.0 0.0 0.00 0.00 0.00 45 1013.7
20260510154303 25 0.0 0.0 0.00 0.00 0.00 41 1013.5
20260510153303 25 0.0 0.0 0.00 0.00 0.00 41 1013.9
20260510152306 24 0.0 0.0 0.00 0.00 0.00 42 1013.6
20260510151302 23 0.0 0.0 0.00 0.00 0.00 44 1014.0
20260510150308 23 0.0 0.0 0.00 0.00 0.00 45 1014.2
20260510145308 22 0.0 0.0 0.00 0.00 0.00 46 1014.2
20260510144302 23 0.0 0.0 0.00 0.00 0.00 45 1014.4
20260510143307 24 0.0 0.0 0.00 0.00 0.00 42 1014.4
20260510142305 24 0.0 0.0 0.00 0.00 0.00 43 1014.6
20260510141303 23 0.0 0.0 0.00 0.00 0.00 45 1014.6
20260510140302 24 0.0 0.0 0.00 0.00 0.00 44 1014.8
20260510135305 24 0.0 0.0 0.00 0.00 0.00 43 1014.9
20260510134303 24 0.0 0.0 0.00 0.00 0.00 41 1014.8
20260510133302 25 0.0 0.0 0.00 0.00 0.00 40 1014.7
20260510132308 24 0.0 0.0 0.00 0.00 0.00 40 1014.6
20260510131302 23 0.0 0.0 0.00 0.00 0.00 42 1014.5
20260510130302 23 0.0 0.0 0.00 0.00 0.00 42 1014.5
20260510125308 23 0.0 0.0 0.00 0.00 0.00 44 1014.4
20260510124307 23 0.0 0.0 0.00 0.00 0.00 43 1014.6
20260510123302 23 0.0 0.0 0.00 0.00 0.00 44 1014.5
20260510122306 23 0.0 0.0 0.00 0.00 0.00 46 1014.7
20260510121302 23 0.0 0.0 0.00 0.00 0.00 44 1014.7
20260510120302 23 0.0 0.0 0.00 0.00 0.00 45 1014.7
20260510115305 23 0.0 0.0 0.00 0.00 0.00 47 1014.8
20260510114307 23 0.0 0.0 0.00 0.00 0.00 47 1015.0
20260510113307 23 0.0 0.0 0.00 0.00 0.00 46 1014.9
20260510112305 23 0.0 0.0 0.00 0.00 0.00 45 1015.1
20260510111302 24 0.0 0.0 0.00 0.00 0.00 43 1015.0
20260510110302 26 0.0 0.0 0.00 0.00 0.00 39 1015.1
20260510105306 25 0.0 0.0 0.00 0.00 0.00 39 1015.0
20260510104302 24 0.0 0.0 0.00 0.00 0.00 41 1015.0
20260510103302 24 0.0 0.0 0.00 0.00 0.00 40 1015.1
20260510102305 26 0.0 0.0 0.00 0.00 0.00 38 1015.2
20260510101302 26 0.0 0.0 0.00 0.00 0.00 38 1015.1
20260510100302 24 0.0 0.0 0.00 0.00 0.00 41 1015.1
20260510095305 24 0.0 0.0 0.00 0.00 0.00 41 1015.1
20260510094302 23 0.0 0.0 0.00 0.00 0.00 41 1015.1
20260510093301 23 0.0 0.0 0.00 0.00 0.00 42 1015.1
20260510092301 22 0.0 0.0 0.00 0.00 0.00 44 1015.0
20260510091302 22 0.0 0.0 0.00 0.00 0.00 45 1015.0
20260510090301 22 0.0 0.0 0.00 0.00 0.00 45 1015.1
20260510085301 23 0.0 0.0 0.00 0.00 0.00 41 1015.0
20260510084307 23 0.0 0.0 0.00 0.00 0.00 43 1014.9
20260510083307 23 0.0 0.0 0.00 0.00 0.00 45 1014.8
20260510082305 23 0.0 0.0 0.00 0.00 0.00 47 1014.8
20260510081302 22 0.0 0.0 0.00 0.00 0.00 48 1014.9
20260510080306 22 0.0 0.0 0.00 0.00 0.00 52 1014.9
20260510075301 21 0.0 0.0 0.00 0.00 0.00 52 1014.9
20260510074307 21 0.0 0.0 0.00 0.00 0.00 52 1014.8
20260510073301 21 0.0 0.0 0.00 0.00 0.00 53 1014.8
20260510072308 20 0.0 0.0 0.00 0.00 0.00 54 1014.7